[Iaude] MPEC G90: 2024 GE1 [a=2.57,e=0.52,i=0.2,H=23.0]

mpec at cfa.harvard.edu mpec at cfa.harvard.edu
Sun Apr 7 10:33:53 EDT 2024


M.P.E.C. 2024-G90                                 Issued 2024 April 7, 14:31 UT

     The Minor Planet Electronic Circulars contain information on unusual
         minor planets, routine data on comets and natural satellites,
         and occasional editorial announcements.  They are published
    on behalf of Division F of the International Astronomical Union by the
          Minor Planet Center, Smithsonian Astrophysical Observatory,
                          Cambridge, MA 02138, U.S.A.
			  
             Prepared using the Tamkin Foundation Computer Network

                              MPC at CFA.HARVARD.EDU
            URL https://www.minorplanetcenter.net/    ISSN 1523-6714

                                    2024 GE1                                    


Observations:
     K24G01E*1C2024 04 04.31588813 25 34.619-08 07 11.64         21.13GVEG090G96
     K24G01E 1C2024 04 04.32144413 25 34.993-08 07 13.40         20.89GVEG090G96
     K24G01E 1C2024 04 04.32700113 25 35.249-08 07 15.64         21.05GVEG090G96
     K24G01E 1C2024 04 04.33255613 25 35.587-08 07 17.58         20.95GVEG090G96
     K24G01E KC2024 04 04.42330013 25 40.800-08 07 48.25         20.88GVEG090I52
     K24G01E KC2024 04 04.42829513 25 41.041-08 07 50.05         21.46GVEG090I52
     K24G01E KC2024 04 04.43332013 25 41.329-08 07 51.20         21.48GVEG090I52
     K24G01E KC2024 04 04.43833513 25 41.639-08 07 53.58         21.08GVEG090I52
     K24G01E KC2024 04 05.21190 13 26 35.62 -08 12 24.1          20.6 RVEG090734
     K24G01E KC2024 04 05.23330 13 26 36.74 -08 12 32.5          20.4 RVEG090734
     K24G01E KC2024 04 05.25469 13 26 38.15 -08 12 39.0          20.4 RVEG090734
     K24G01E |C2024 04 06.11990013 27 37.730-08 17 07.70         21.2 GVEG090807
     K24G01E |C2024 04 06.12540013 27 38.070-08 17 10.50         20.9 GVEG090807
     K24G01E |C2024 04 06.13090013 27 38.390-08 17 12.10         20.9 GVEG090807
     K24G01E KC2024 04 06.22400813 27 44.24 -08 18 18.7          21.8 GVEG090H21
     K24G01E KC2024 04 06.22680713 27 44.41 -08 18 19.5          21.5 GVEG090H21
     K24G01E KC2024 04 06.22960613 27 44.57 -08 18 21.2          21.3 GVEG090H21
     K24G01E KC2024 04 06.23240513 27 44.75 -08 18 22.2          21.2 GVEG090H21
     K24G01E KC2024 04 06.95986213 28 34.61 -08 22 41.1                XEG090L01
     K24G01E KC2024 04 06.96645413 28 35.01 -08 22 43.8          20.9 GXEG090L01
     K24G01E KC2024 04 06.97283513 28 35.38 -08 22 45.8                XEG090L01
     K24G01E KC2024 04 07.23732013 28 53.87 -08 24 17.7          20.8 GVEG090H21
     K24G01E KC2024 04 07.24308913 28 54.21 -08 24 20.2          20.8 GVEG090H21
     K24G01E KC2024 04 07.25302713 28 54.80 -08 24 23.3          21.2 GVEG090H21

Observer details:
734 Farpoint Observatory, Eskridge.  Observers G. Hug, D. Cromer, D. Goodin,
    R. Valentine.  Measurer G. Hug.  0.7m reflector + CCD.
807 Cerro Tololo Observatory, La Serena.  Observers T. Linder, R. Holmes.
    0.61-m f/6.8 Ritchey-Chretien + CCD.
G96 Mt. Lemmon Survey.  Observer G. J. Leonard.  Measurers T. Beuden, V. F.
    Carvajal, D. Fay, J. B. Fazekas, D. C. Fuls, A. R. Gibbs, A. D. Grauer, H.
    Groeller, J. K. Hogan, R. A. Kowalski, S. M. Larson, G. J. Leonard, D.
    Rankin, R. L. Seaman, F. C. Shelly, K. W. Wierzchos.  1.5-m reflector +
    10K CCD.
H21 Astronomical Research Observatory, Westfield.  Observer R. Holmes.
    Measurers T. Linder, R. Holmes, L. Horn.  0.76-m f/3.0 astrograph + CCD,
    0.81-m f/4.0 astrograph + CCD.
I52 Steward Observatory, Mt. Lemmon Station.  Observer R. A. Kowalski.
    Measurers T. Beuden, V. F. Carvajal, D. Fay, J. B. Fazekas, D. C. Fuls, A.
    R. Gibbs, A. D. Grauer, H. Groeller, J. K. Hogan, R. A. Kowalski, S. M.
    Larson, G. J. Leonard, D. Rankin, R. L. Seaman, F. C. Shelly, K. W.
    Wierzchos.  1.0-m prime focus + CCD.
L01 Visnjan Observatory, Tican.  Observers K. Korlevic, G. D'Agostino, I.
    Forkapa, G. Kervina, E. Pettarin, L. Poropat.  Measurer E. Pettarin.
    1.0-m f/2.9 reflector + CCD.

Orbital elements:
2024 GE1                                                 Earth MOID = 0.2343 AU
Epoch 2024 Mar. 31.0 TT = JDT 2460400.5                 Veres                   
M 351.29288              (2000.0)            P               Q                  
n   0.23884735     Peri.   92.02441     -0.71988005     +0.69409336             
a   2.5726997      Node   131.93062     -0.63824020     -0.66043116             
e   0.5168598      Incl.    0.20550     -0.27280425     -0.28647004             
P   4.13           H   23.02          G   0.15           U   8                  
Residuals in seconds of arc
240404 G96  0.4-  0.0     240405 734  0.5-  0.2+    240406 H21  0.0   0.2-
240404 G96  0.5+  0.2+    240405 734 (2.5-  0.6-)   240406 H21  0.2+  0.2-
240404 G96  0.3-  0.1-    240405 734  0.0   0.5+    240406 L01  0.2-  0.0
240404 G96  0.0   0.2-    240406 807  0.2-  0.3+    240406 L01  0.1-  0.4-
240404 I52  0.5+  0.1-    240406 807  0.1+  0.5-    240406 L01  0.2-  0.1-
240404 I52  0.2-  0.2-    240406 807  0.0   0.1-    240407 H21  0.0   0.0
240404 I52  0.3-  0.3+    240406 H21  0.0   0.3+    240407 H21  0.0   0.4-
240404 I52  0.1-  0.4-    240406 H21  0.0   0.5+    240407 H21  0.0   0.1+

Ephemeris:
2024 GE1                 a,e,i = 2.57, 0.52, 0                   q = 1.2430
Date    TT    R. A. (2000) Decl.     Delta      r    Elong.  Phase     V
2024 03 08    12 56 20.7 -05 32 00   0.4432  1.4007   152.5    19.1    23.0
...
2024 03 23    13 12 18.9 -06 58 11   0.3495  1.3350   163.2    12.5    22.1
...
2024 03 31    13 20 49.6 -07 42 27   0.3116  1.3061   168.9     8.5    21.7
...
2024 04 06    13 27 28.5 -08 16 38   0.2885  1.2876   173.0     5.4    21.3
2024 04 07    13 28 37.1 -08 22 30   0.2851  1.2848   173.7     4.9    21.3
2024 04 08    13 29 46.6 -08 28 27   0.2818  1.2820   174.4     4.4    21.2
...
2024 04 14    13 37 04.7 -09 06 09   0.2647  1.2675   178.1     1.5    20.8
...
2024 04 22    13 48 03.0 -10 03 31   0.2485  1.2532   176.5     2.8    20.8
...
2024 05 07    14 13 06.4 -12 15 15   0.2378  1.2430   168.6     9.3    21.0

M. P. C. Staff               (C) Copyright 2024 MPC           M.P.E.C. 2024-G90





More information about the Iaude mailing list